Home > Time Zones > World Clock > Weather > U.S.A. > Waco > Past weeks

Flag for U.S.A. Weather past 2 weeks in Waco, Texas, U.S.A.

Now
79 °F

Sunny.


Feels Like: 80 °F
Forecast: 60 / 80 °F
Wind: 3 mph from North

Location: Waco Regional Airport

Current Time: Oct 23, 2014 at 4:04:24 PM

Latest Report: Oct 23, 2014 at 2:51 PM


Visibility: 10 mi

Pressure: 30.07 "Hg

Humidity: 45%

Dew point: 56 °F

Location of WacoLocation

Historic Weather in Waco — Graph

°F

Waco temperature yesterday

Maximum temperature yesterday: 81 °F (at 2:51 PM)
Minimum temperature yesterday: 58 °F (at 7:51 AM)
Average temperature yesterday: 69 °F

Past Weeks' High & Low Weather Summary

 TemperatureHumidityPressure
High94 °F (Oct 10, 3:51 PM)100% (Oct 13, 5:51 AM)30.15 "Hg (Oct 13, 5:51 AM)
Low48 °F (Oct 15, 6:51 AM)22% (Oct 14, 5:51 PM)29.60 "Hg (Oct 13, 3:51 AM)
Average70 °F69%29.97 "Hg
* Reported Oct 8 2:51 PM — Oct 23 2:51 PM, Waco, Weather by CustomWeather, © 2014

Note: Actual official high and low records may vary slightly from our data, if they occured in-between our weather recording intervals... More about our weather records

Advertising

Waco weather history for previous 24 hours

 ConditionsComfort  
Time TempWeatherWind HumidityBarometerVisibility
2:51 PM
Oct 23
79 °FSunny.3 mph45%30.07 "Hg10 mi
1:51 PM78 °FSunny.3 mph48%30.09 "Hg10 mi
12:51 PM76 °FPassing clouds.6 mph52%30.12 "Hg10 mi
11:51 AM73 °FOvercast.5 mph55%30.14 "Hg10 mi
10:51 AM71 °FOvercast.6 mph61%30.15 "Hg10 mi
9:51 AM68 °FSunny.8 mph70%30.14 "Hg10 mi
8:51 AM64 °FPassing clouds.3 mph84%30.13 "Hg10 mi
7:51 AM63 °FPassing clouds.No wind84%30.12 "Hg10 mi
6:51 AM63 °FOvercast.No wind87%30.11 "Hg10 mi
5:51 AM64 °FLight rain. Overcast.No wind84%30.10 "Hg10 mi
4:51 AM65 °FPassing clouds.No wind78%30.09 "Hg10 mi
3:51 AM65 °FPassing clouds.5 mph81%30.08 "Hg10 mi
2:51 AM66 °FLight rain. Passing clouds.3 mph78%30.08 "Hg10 mi
1:51 AM66 °FPassing clouds.No wind75%30.09 "Hg10 mi
12:51 AM66 °FClear.5 mph75%30.08 "Hg10 mi
11:51 PM
Oct 22
66 °FClear.6 mph75%30.08 "Hg10 mi
10:51 PM67 °FClear.5 mph73%30.09 "Hg10 mi
9:51 PM69 °FClear.5 mph68%30.09 "Hg10 mi
8:51 PM68 °FClear.3 mph73%30.09 "Hg10 mi
7:51 PM72 °FClear.6 mph61%30.06 "Hg10 mi
6:51 PM74 °FSunny.3 mph57%30.06 "Hg10 mi
5:51 PM77 °FSunny.5 mph52%30.05 "Hg10 mi
4:51 PM80 °FPassing clouds.3 mph45%30.04 "Hg10 mi
Weather by CustomWeather, © 2014

See weather overviewHow to use our weather pages